[[{"header":{"parameterUnit":"m.s-1","parameterCategory":1,"la1":30.2991,"la2":30.254,"lo1":-89.0895,"lo2":-89.0444,"dy":0.0017,"dx":0.0017,"nx":28,"ny":28,"refTime":"2025-01-27T03:00:00:Z","depth":0,"parameterNumber":2,"parameterNumberName":"U-component_of_WINDS"},"data":[0,0,0,0,0,0,0,0,0,0,0,0,0,0,0,0,0,0,0,0,0,0,0,0,0,0,0,0,0,0,0,0,0,0,0,0,0,0,0,0,0,0,0,0,0,0,0,0,0,0,0,0,0,0,0,0,0,0,0.6692,0.6692,0,0.6685,0.6685,0.6685,0.6651,0.665,0.6649,0.6649,0.6642,0.6643,0.6643,0,0,0,0,0,0,0,0,0,0,0,0,0,0.6678,0.6678,0.6692,0.6692,0.6692,0.6686,0.6685,0.6685,0.6651,0.665,0.6649,0.6648,0.6642,0.6643,0.6643,0,0,0,0,0,0,0,0,0,0,0,0,0,0.6679,0.6678,0.6692,0.6674,0.6673,0.6686,0.6685,0.6685,0.6651,0.665,0.6649,0.6648,0.6642,0.6642,0.6643,0.6673,0,0,0.6646,0.6646,0,0,0,0,0,0,0,0,0.6679,0.6679,0.6677,0.6676,0.6674,0.6668,0.6678,0.6681,0.6652,0.666,0.6649,0.6647,0.6652,0.6652,0.6653,0.6673,0.6672,0.6646,0.6647,0.6647,0.6647,0,0,0,0,0,0,0,0.6679,0.6679,0.669,0.6677,0.6675,0.6667,0.6666,0.6678,0.6663,0.6659,0.6656,0.6656,0.6651,0.6652,0.6653,0.6672,0.6646,0.6647,0.6647,0.6648,0.6718,0.6719,0,0,0,0,0,0,0.6681,0.668,0.669,0.6689,0.6673,0.6668,0.6667,0.6671,0.6662,0.666,0.6657,0.6654,0.6651,0.6652,0.6652,0.6688,0.6647,0.6648,0.6648,0.6717,0.6718,0.672,0,0,0,0,0,0,0.6681,0.6682,0.669,0.6684,0.6684,0.667,0.6675,0.6672,0.6673,0.6661,0.6658,0.6662,0.665,0.6651,0.6668,0.6687,0.6648,0.6649,0.6715,0.6717,0.6719,0.6758,0,0,0,0,0,0,0.668,0.6682,0.6693,0.6684,0.6685,0.6706,0.6676,0.6672,0.6675,0.6671,0.6664,0.6662,0.6649,0.6667,0.6669,0.6688,0.665,0.6713,0.6716,0.6718,0.6755,0.6762,0.6767,0,0,0,0,0,0.668,0.6704,0.6694,0.6695,0.6698,0.6707,0.6708,0.6693,0.6676,0.6688,0.668,0.6662,0.6684,0.6669,0.6671,0.669,0.6712,0.6715,0.6718,0.6753,0.676,0.6767,0,0,0,0,0,0,0.6715,0.6703,0.6691,0.6713,0.6712,0.6702,0.6715,0.6701,0.6704,0.67,0.6682,0.668,0.6701,0.6697,0.6681,0.6719,0.6695,0.6699,0.6721,0.6728,0.6734,0.6735,0.665,0,0,0,0,0,0.6726,0.6734,0.6723,0.6743,0.6743,0.673,0.6733,0.6722,0.6719,0.6719,0.6712,0.6711,0.6718,0.6722,0.6728,0.6754,0.6753,0.6768,0.6774,0.6779,0.6782,0.6798,0.6805,0.673,0.673,0.6729,0,0,0.6747,0.6741,0.6748,0.675,0.6748,0.6758,0.6729,0.674,0.6748,0.672,0.6737,0.6732,0.673,0.6752,0.6762,0.675,0.6803,0.6783,0.6787,0.6788,0.6802,0.6809,0.6815,0.6732,0.6731,0.6731,0,0,0.6792,0.6788,0.6805,0.6803,0.68,0.6791,0.6795,0.6788,0.6784,0.68,0.678,0.6789,0.68,0.68,0.6801,0.6847,0.6832,0.6849,0.6879,0.6894,0.69,0.6906,0.6923,0.693,0.6853,0.6853,0.6853,0,0.6819,0.6833,0.6816,0.6829,0.6831,0.6807,0.6825,0.6824,0.6823,0.6826,0.6812,0.6827,0.6823,0.6846,0.6858,0.6859,0.6864,0.685,0.6901,0.6906,0.6911,0.6927,0.6934,0.6855,0.6855,0.6854,0.6854,0,0.6867,0.6877,0.6892,0.6892,0.6896,0.6911,0.6897,0.6903,0.6892,0.6884,0.6902,0.6897,0.6902,0.6906,0.6894,0.6928,0.6921,0.6904,0.688,0.692,0.6936,0.6942,0.6858,0.6857,0.6857,0.6856,0,0,0.6934,0.6925,0.6931,0.6931,0.6926,0.6934,0.6949,0.6954,0.696,0.696,0.6973,0.6984,0.6969,0.6971,0.6959,0.6972,0.7011,0.6954,0.6954,0.6966,0.7049,0.7063,0.707,0.7,0.7001,0.7002,0.705,0,0.6977,0.7002,0.6988,0.7016,0.7026,0.7003,0.7016,0.7015,0.7009,0.7017,0.701,0.7019,0.6997,0.6998,0.701,0.7004,0.7028,0.7,0.7013,0.7014,0.7016,0.7078,0.7092,0.7137,0.7056,0.7057,0.7057,0,0.7032,0.7035,0.7064,0.7058,0.7062,0.7074,0.7078,0.7086,0.7085,0.7079,0.7082,0.7067,0.7082,0.7058,0.7079,0.7061,0.7065,0.7063,0.7064,0.7066,0.7039,0.7083,0.7151,0.7158,0.7067,0.7066,0.7065,0,0.7079,0.7091,0.711,0.711,0.7104,0.7114,0.7112,0.7109,0.7114,0.7117,0.712,0.7125,0.7128,0.7133,0.7121,0.7104,0.7145,0.7119,0.7141,0.7142,0.7152,0.7152,0.7223,0.7153,0.7153,0.7152,0.7152,0,0.713,0.7149,0.7131,0.7143,0.7164,0.7147,0.7169,0.7164,0.7162,0.7174,0.7154,0.7165,0.7147,0.7157,0.7147,0.7167,0.7168,0.7165,0.7163,0.7168,0.7168,0.7171,0.7168,0.7154,0.7154,0.7153,0.7153,0,0.7187,0.7175,0.7195,0.7188,0.7187,0.7203,0.7197,0.7208,0.7201,0.7215,0.7218,0.7206,0.7216,0.7204,0.7213,0.7207,0.7235,0.7227,0.7236,0.7234,0.7258,0.7256,0.7335,0.7345,0.7267,0.7268,0.7268,0,0.7221,0.7235,0.723,0.7236,0.7235,0.7245,0.725,0.7235,0.724,0.7241,0.7252,0.7261,0.7267,0.7285,0.7278,0.7285,0.7278,0.7305,0.7279,0.7284,0.728,0.728,0.7282,0.731,0.7311,0.7312,0.7313,0,0.7282,0.7276,0.7284,0.729,0.7296,0.73,0.7302,0.7308,0.7293,0.73,0.7311,0.7316,0.7326,0.7335,0.734,0.7339,0.7324,0.7321,0.7327,0.7333,0.7338,0.7337,0.7251,0.7319,0.7319,0.7318,0.7318,0.7318,0.7329,0.7341,0.734,0.735,0.735,0.7353,0.7364,0.7358,0.7367,0.7374,0.7364,0.7378,0.7377,0.7383,0.7384,0.7394,0.7383,0.7391,0.7393,0.7396,0.74,0.7335,0.7395,0.7395,0.7395,0.7394,0.7394,0,0.7391,0.739,0.7398,0.7403,0.7411,0.7396,0.7398,0.7406,0.7418,0.7419,0.7426,0.7439,0.7448,0.7442,0.745,0.746,0.7454,0.7463,0.7463,0.7463,0.7409,0.7404,0.7468,0.7468,0.7468,0.7468,0.7468,0.7468,0.7424,0.7445,0.7439,0.746,0.7458,0.7471,0.7474,0.7477,0.7478,0.7494,0.7502,0.7498,0.7496,0.7504,0.7513,0.7511,0.7515,0.7527,0.7523,0.7473,0.7466,0.7459,0.7454,0.7528,0.7528,0.7576,0.7576,0.7577]},{"header":{"parameterUnit":"m.s-1","parameterCategory":1,"la1":30.2991,"la2":30.254,"lo1":-89.0895,"lo2":-89.0444,"dy":0.0017,"dx":0.0017,"nx":28,"ny":28,"refTime":"2025-01-27T03:00:00:Z","depth":0,"parameterNumber":3,"parameterNumberName":"V-component_of_WINDS"},"data":[0,0,0,0,0,0,0,0,0,0,0,0,0,0,0,0,0,0,0,0,0,0,0,0,0,0,0,0,0,0,0,0,0,0,0,0,0,0,0,0,0,0,0,0,0,0,0,0,0,0,0,0,0,0,0,0,0,0,3.1048,3.105,0,3.124,3.1242,3.1244,3.1274,3.1272,3.127,3.1269,3.1468,3.1474,3.1481,0,0,0,0,0,0,0,0,0,0,0,0,0,3.0709,3.0715,3.1047,3.105,3.1052,3.1239,3.1242,3.1245,3.1274,3.1272,3.127,3.1268,3.1465,3.1474,3.1482,0,0,0,0,0,0,0,0,0,0,0,0,0,3.0874,3.0717,3.1047,3.1089,3.1095,3.1239,3.1242,3.1245,3.1275,3.1272,3.1269,3.1267,3.1463,3.1473,3.1483,3.1598,0,0,3.1515,3.1519,0,0,0,0,0,0,0,0,3.0865,3.0887,3.1081,3.1087,3.1093,3.123,3.1196,3.1364,3.1275,3.1207,3.1269,3.1266,3.1391,3.1407,3.1449,3.1608,3.1616,3.1516,3.1522,3.1526,3.1529,0,0,0,0,0,0,0,3.0853,3.0878,3.1124,3.1084,3.1091,3.11,3.1121,3.1228,3.1311,3.1212,3.1215,3.1237,3.1394,3.1439,3.1454,3.1619,3.1515,3.1524,3.1531,3.1535,3.1885,3.1888,0,0,0,0,0,0,3.0834,3.0869,3.1117,3.1129,3.097,3.1108,3.1131,3.1189,3.131,3.1326,3.1239,3.1238,3.1422,3.1442,3.1461,3.1606,3.1526,3.1536,3.1542,3.1882,3.1885,3.1889,0,0,0,0,0,0,3.0826,3.0856,3.111,3.1,3.1033,3.1117,3.1181,3.1194,3.1239,3.133,3.1345,3.127,3.1421,3.1446,3.1564,3.1613,3.1541,3.155,3.1878,3.1883,3.1887,3.1895,0,0,0,0,0,0,3.0817,3.0853,3.0897,3.1001,3.1039,3.1209,3.1184,3.12,3.1256,3.1257,3.1363,3.1378,3.1421,3.1549,3.1575,3.1626,3.1558,3.1874,3.188,3.1886,3.1891,3.1899,3.1907,0,0,0,0,0,3.0804,3.0891,3.0899,3.0929,3.1095,3.1212,3.1234,3.1281,3.126,3.1306,3.1365,3.1374,3.1603,3.1561,3.159,3.1645,3.1871,3.1879,3.1885,3.1887,3.1898,3.1907,0,0,0,0,0,0,3.0792,3.0906,3.0915,3.1038,3.1115,3.1217,3.1276,3.129,3.1375,3.1372,3.1428,3.1452,3.1567,3.1618,3.1569,3.1764,3.1736,3.1749,3.1727,3.1738,3.1746,3.1732,3.1567,0,0,0,0,0,3.0803,3.0887,3.0983,3.1082,3.112,3.1191,3.1244,3.1274,3.1356,3.1389,3.1456,3.1536,3.1626,3.1685,3.1772,3.1898,3.1923,3.195,3.1958,3.1964,3.1976,3.2048,3.2062,3.1912,3.1912,3.1911,0,0,3.0827,3.09,3.095,3.1081,3.1145,3.1232,3.1218,3.1311,3.1377,3.1403,3.1519,3.1571,3.1665,3.1787,3.1845,3.1833,3.2022,3.1973,3.1977,3.1986,3.2056,3.2071,3.2083,3.1916,3.1916,3.1915,0,0,3.0918,3.098,3.1071,3.1134,3.123,3.1277,3.1298,3.1398,3.1434,3.1551,3.1573,3.1652,3.1806,3.1872,3.1926,3.2042,3.2055,3.2069,3.2111,3.218,3.2192,3.2203,3.2247,3.2261,3.2079,3.2079,3.2079,0,3.0936,3.1068,3.1116,3.1208,3.1266,3.1293,3.1386,3.1446,3.1565,3.1605,3.159,3.1785,3.1849,3.1989,3.2017,3.2059,3.2087,3.2058,3.2187,3.2198,3.2209,3.2251,3.2267,3.208,3.208,3.208,3.208,0,3.1088,3.1179,3.1241,3.1356,3.142,3.1513,3.1575,3.1635,3.1659,3.1708,3.1828,3.1906,3.2011,3.2046,3.2071,3.219,3.218,3.2175,3.2148,3.2224,3.2264,3.2281,3.2082,3.2082,3.2081,3.2081,0,0,3.1176,3.1316,3.1338,3.1391,3.1499,3.1571,3.1665,3.1768,3.1819,3.19,3.1982,3.2112,3.2108,3.2169,3.2201,3.2262,3.2352,3.225,3.2253,3.2268,3.249,3.2495,3.2513,3.236,3.2363,3.2366,3.2483,0,3.128,3.1448,3.1494,3.1637,3.1723,3.175,3.1833,3.1908,3.1956,3.2037,3.209,3.2182,3.2169,3.2207,3.2268,3.2327,3.2397,3.2319,3.2438,3.2442,3.2416,3.2534,3.2539,3.2646,3.2499,3.2502,3.2504,0,3.1424,3.1509,3.166,3.1759,3.1797,3.187,3.1968,3.2044,3.2131,3.2162,3.223,3.2257,3.2358,3.2324,3.2464,3.241,3.2462,3.2498,3.2504,3.2518,3.2479,3.2554,3.2681,3.2698,3.2529,3.2527,3.2525,0,3.1476,3.1628,3.1739,3.1783,3.19,3.1951,3.2002,3.2086,3.2145,3.2231,3.2271,3.2367,3.242,3.2495,3.2548,3.2518,3.2685,3.2654,3.2715,3.2714,3.275,3.2748,3.289,3.278,3.2779,3.2779,3.2779,0,3.1589,3.1681,3.1764,3.1832,3.1937,3.1989,3.2091,3.2143,3.2218,3.2298,3.2327,3.2402,3.2466,3.255,3.2591,3.2703,3.2726,3.2755,3.2765,3.2754,3.2751,3.279,3.2785,3.2783,3.2782,3.2782,3.2781,0,3.1665,3.1724,3.1847,3.1947,3.1975,3.2048,3.2134,3.2202,3.2251,3.2352,3.2379,3.2456,3.2556,3.2616,3.2742,3.2771,3.2894,3.29,3.2865,3.287,3.2928,3.2923,3.3103,3.313,3.2999,3.3,3.3001,0,3.1734,3.1806,3.1914,3.197,3.2022,3.211,3.2171,3.2225,3.2287,3.2392,3.2448,3.255,3.2634,3.2793,3.2862,3.2959,3.2969,3.3025,3.2984,3.2971,3.2973,3.2969,3.2977,3.3033,3.3034,3.3035,3.3036,0,3.1852,3.1878,3.1963,3.206,3.2131,3.221,3.2289,3.2332,3.24,3.2469,3.2571,3.2637,3.2766,3.2868,3.2971,3.3025,3.3043,3.3048,3.3068,3.3058,3.3035,3.3051,3.2887,3.3044,3.3043,3.3043,3.3042,3.3042,3.1929,3.1994,3.2081,3.2176,3.2241,3.2314,3.2383,3.2441,3.2527,3.2637,3.2663,3.2772,3.2859,3.2999,3.3055,3.3142,3.3133,3.316,3.3168,3.3174,3.3177,3.3019,3.316,3.316,3.316,3.316,3.316,0,3.205,3.2107,3.2194,3.2303,3.2378,3.2387,3.2474,3.2537,3.2632,3.2711,3.2794,3.2913,3.3011,3.3087,3.3189,3.3243,3.3254,3.3268,3.3266,3.3279,3.3178,3.3152,3.3258,3.3258,3.3258,3.3258,3.3258,3.3258,3.2122,3.2234,3.227,3.2415,3.2472,3.2578,3.2628,3.2696,3.276,3.2891,3.2973,3.3021,3.31,3.3208,3.3299,3.3319,3.3356,3.3369,3.3391,3.3296,3.3286,3.3275,3.3252,3.3376,3.3377,3.3485,3.3486,3.3486]}]]